AAL1898 KPHL-KEYW

Flight info

Callsign AAL1898
Flight time 2h 30m
Altitude 38000
Route OOD TEBEE HAYDO TRPOD Q409 CRPLR EARZZ Q131 WAALT Y289 BAHAA AR17 HIBAC EBAYY FNTSY1
Aircraft A319/M-SDE3FGHIRWY/LB1

Departure

Time 2026-05-05 14:52
Airport Philadelphia International Airport (KPHL)

Arrival

Time 2026-05-05 17:23
Airport Key West International Airport (KEYW)
Time Latitude Longitude Altitude Speed Heading
2026-05-05 14:11 39.87369 -75.24330 22 ft 0 kts 345°
2026-05-05 14:40 39.87358 -75.24327 23 ft 4 kts 345°
2026-05-05 14:40 39.87332 -75.24318 25 ft 3 kts 345°
2026-05-05 14:40 39.87313 -75.24313 23 ft 4 kts 21°
2026-05-05 14:41 39.87301 -75.24332 22 ft 3 kts 75°
2026-05-05 14:41 39.87298 -75.24348 22 ft 0 kts 75°
2026-05-05 14:47 39.87302 -75.24329 22 ft 4 kts 75°
2026-05-05 14:47 39.87310 -75.24285 24 ft 6 kts 75°
2026-05-05 14:47 39.87317 -75.24218 22 ft 8 kts 108°
2026-05-05 14:48 39.87264 -75.24172 23 ft 10 kts 153°
2026-05-05 14:48 39.87196 -75.24125 24 ft 12 kts 152°
2026-05-05 14:48 39.87110 -75.24084 23 ft 15 kts 166°
2026-05-05 14:48 39.87001 -75.24049 22 ft 15 kts 165°
2026-05-05 14:49 39.86924 -75.24020 23 ft 12 kts 156°
2026-05-05 14:49 39.86913 -75.23928 22 ft 12 kts 72°
2026-05-05 14:49 39.86934 -75.23824 23 ft 11 kts 76°
2026-05-05 14:49 39.86954 -75.23721 22 ft 12 kts 76°
2026-05-05 14:50 39.86975 -75.23614 24 ft 12 kts 76°
2026-05-05 14:50 39.86984 -75.23530 22 ft 7 kts 110°
2026-05-05 14:50 39.86940 -75.23507 22 ft 8 kts 170°
2026-05-05 14:50 39.86885 -75.23510 22 ft 8 kts 217°
2026-05-05 14:51 39.86869 -75.23571 24 ft 2 kts 256°
2026-05-05 14:51 39.86868 -75.23572 24 ft 0 kts 256°
2026-05-05 14:51 39.86823 -75.23802 22 ft 63 kts 255°
2026-05-05 14:52 39.86646 -75.24686 23 ft 136 kts 255°
2026-05-05 14:52 39.86372 -75.26094 153 ft 178 kts 253°
2026-05-05 14:52 39.86081 -75.27684 810 ft 185 kts 253°
2026-05-05 14:52 39.85868 -75.29384 1425 ft 199 kts 265°
2026-05-05 14:53 39.85779 -75.31299 1834 ft 225 kts 262°
2026-05-05 14:53 39.85087 -75.33180 2479 ft 243 kts 228°
2026-05-05 14:53 39.83644 -75.34395 3239 ft 255 kts 204°
2026-05-05 14:53 39.81857 -75.34722 4019 ft 269 kts 177°
2026-05-05 14:54 39.80018 -75.34124 4814 ft 275 kts 168°
2026-05-05 14:54 39.78167 -75.33475 5721 ft 271 kts 172°
2026-05-05 14:54 39.76316 -75.33034 6656 ft 269 kts 176°
2026-05-05 14:54 39.74468 -75.32683 7550 ft 268 kts 177°
2026-05-05 14:55 39.72618 -75.32336 8412 ft 269 kts 177°
2026-05-05 14:55 39.70761 -75.31961 9247 ft 271 kts 177°
2026-05-05 14:55 39.68892 -75.31555 10060 ft 273 kts 177°
2026-05-05 14:55 39.66976 -75.31123 10465 ft 290 kts 176°
2026-05-05 14:56 39.64906 -75.30660 10683 ft 310 kts 178°
2026-05-05 14:56 39.62741 -75.30534 11204 ft 312 kts 189°
2026-05-05 14:56 39.60584 -75.30864 11837 ft 314 kts 193°
2026-05-05 14:56 39.58405 -75.31253 12494 ft 318 kts 194°
2026-05-05 14:57 39.56204 -75.31652 13155 ft 321 kts 194°
2026-05-05 14:57 39.53976 -75.32060 13799 ft 325 kts 194°
2026-05-05 14:57 39.51717 -75.32471 14318 ft 330 kts 194°
2026-05-05 14:57 39.49429 -75.32887 14863 ft 334 kts 194°
2026-05-05 14:58 39.47114 -75.33304 15413 ft 338 kts 194°
2026-05-05 14:58 39.44799 -75.33721 15956 ft 342 kts 194°
2026-05-05 14:58 39.42426 -75.34149 16504 ft 346 kts 194°
2026-05-05 14:58 39.40024 -75.34583 17050 ft 350 kts 194°
2026-05-05 14:59 39.37597 -75.35021 17590 ft 354 kts 194°
2026-05-05 14:59 39.35141 -75.35464 18128 ft 358 kts 194°
2026-05-05 14:59 39.32656 -75.35911 18594 ft 362 kts 194°
2026-05-05 14:59 39.30147 -75.36363 19051 ft 366 kts 193°
2026-05-05 15:00 39.27614 -75.36819 19525 ft 369 kts 193°
2026-05-05 15:00 39.25930 -75.37123 19855 ft 371 kts 193°
2026-05-05 15:00 39.22496 -75.37738 20525 ft 374 kts 193°
2026-05-05 15:00 39.19907 -75.38200 21012 ft 377 kts 192°
2026-05-05 15:01 39.17296 -75.38666 21507 ft 380 kts 192°
2026-05-05 15:01 39.14665 -75.39134 21957 ft 383 kts 192°
2026-05-05 15:01 39.12020 -75.39606 22426 ft 386 kts 192°
2026-05-05 15:01 39.09346 -75.40085 22874 ft 389 kts 192°
2026-05-05 15:02 39.06655 -75.40567 23307 ft 392 kts 192°
2026-05-05 15:02 39.03941 -75.41049 23711 ft 395 kts 191°
2026-05-05 15:02 39.01210 -75.41534 24092 ft 397 kts 191°
2026-05-05 15:02 38.98467 -75.42019 24483 ft 399 kts 191°
2026-05-05 15:03 38.95711 -75.42504 24872 ft 401 kts 191°
2026-05-05 15:03 38.92945 -75.42993 25234 ft 403 kts 192°
2026-05-05 15:03 38.90186 -75.43483 25574 ft 406 kts 192°
2026-05-05 15:03 38.87373 -75.43983 25916 ft 409 kts 191°
2026-05-05 15:04 38.84547 -75.44483 26281 ft 411 kts 191°
2026-05-05 15:04 38.81711 -75.44986 26647 ft 412 kts 191°
2026-05-05 15:04 38.78863 -75.45491 27007 ft 414 kts 191°
2026-05-05 15:04 38.76002 -75.45997 27367 ft 416 kts 191°
2026-05-05 15:05 38.70241 -75.47016 28098 ft 420 kts 191°
2026-05-05 15:05 38.67343 -75.47527 28451 ft 422 kts 191°
2026-05-05 15:05 38.64431 -75.48041 28803 ft 423 kts 191°
2026-05-05 15:06 38.61507 -75.48558 29149 ft 425 kts 191°
2026-05-05 15:06 38.58567 -75.49077 29494 ft 427 kts 191°
2026-05-05 15:06 38.55614 -75.49593 29831 ft 429 kts 191°
2026-05-05 15:06 38.52649 -75.50107 30147 ft 431 kts 191°
2026-05-05 15:07 38.49671 -75.50625 30401 ft 433 kts 191°
2026-05-05 15:07 38.46680 -75.51150 30640 ft 435 kts 191°
2026-05-05 15:07 38.43672 -75.51679 30872 ft 437 kts 191°
2026-05-05 15:07 38.40655 -75.52208 31143 ft 438 kts 191°
2026-05-05 15:08 38.37636 -75.52755 31450 ft 437 kts 194°
2026-05-05 15:08 38.34748 -75.53701 31780 ft 433 kts 202°
2026-05-05 15:08 38.31999 -75.55216 32100 ft 429 kts 211°
2026-05-05 15:08 38.29480 -75.57224 32418 ft 426 kts 217°
2026-05-05 15:09 38.27036 -75.59378 32745 ft 426 kts 217°
2026-05-05 15:09 38.24597 -75.61518 33067 ft 426 kts 217°
2026-05-05 15:09 38.22147 -75.63651 33404 ft 426 kts 217°
2026-05-05 15:09 38.19697 -75.65775 33786 ft 424 kts 217°
2026-05-05 15:10 38.17260 -75.67885 34124 ft 424 kts 217°
2026-05-05 15:10 38.14824 -75.70000 34420 ft 423 kts 217°
2026-05-05 15:10 38.12390 -75.72112 34708 ft 423 kts 217°
2026-05-05 15:10 38.09963 -75.74217 34997 ft 423 kts 217°
2026-05-05 15:11 38.07537 -75.76319 35272 ft 422 kts 217°
2026-05-05 15:11 38.05139 -75.78398 35544 ft 422 kts 217°
2026-05-05 15:11 38.02710 -75.80500 35699 ft 424 kts 217°
2026-05-05 15:11 38.00271 -75.82609 35910 ft 424 kts 217°
2026-05-05 15:12 37.97832 -75.84716 36166 ft 424 kts 217°
2026-05-05 15:12 37.95397 -75.86818 36414 ft 423 kts 217°
2026-05-05 15:12 37.92954 -75.88924 36655 ft 423 kts 217°
2026-05-05 15:12 37.90521 -75.91020 36887 ft 423 kts 217°
2026-05-05 15:13 37.88088 -75.93114 37113 ft 422 kts 217°
2026-05-05 15:13 37.85658 -75.95205 37330 ft 422 kts 217°
2026-05-05 15:13 37.83232 -75.97294 37544 ft 422 kts 217°
2026-05-05 15:13 37.80803 -75.99382 37748 ft 422 kts 217°
2026-05-05 15:14 37.78377 -76.01459 37945 ft 421 kts 217°
2026-05-05 15:14 37.75945 -76.03534 38054 ft 422 kts 217°
2026-05-05 15:14 37.73519 -76.05606 38064 ft 421 kts 217°
2026-05-05 15:15 37.68669 -76.09757 38062 ft 421 kts 217°
2026-05-05 15:15 37.63825 -76.13903 38066 ft 421 kts 217°
2026-05-05 15:16 37.58682 -76.17431 38064 ft 431 kts 202°
2026-05-05 15:16 37.52966 -76.19796 38072 ft 432 kts 202°
2026-05-05 15:17 37.47248 -76.22174 38068 ft 433 kts 202°
2026-05-05 15:17 37.41536 -76.24556 38068 ft 433 kts 202°
2026-05-05 15:18 37.35809 -76.26916 38068 ft 433 kts 202°
2026-05-05 15:18 37.30080 -76.29279 38072 ft 433 kts 202°
2026-05-05 15:19 37.24353 -76.31646 38069 ft 433 kts 202°
2026-05-05 15:19 37.18665 -76.33992 38069 ft 433 kts 202°
2026-05-05 15:20 37.12935 -76.36345 38059 ft 433 kts 202°
2026-05-05 15:20 37.07203 -76.38704 38065 ft 434 kts 202°
2026-05-05 15:21 37.01468 -76.41060 38064 ft 433 kts 202°
2026-05-05 15:21 36.95736 -76.43412 38139 ft 434 kts 202°
2026-05-05 15:22 36.89995 -76.45757 38095 ft 434 kts 202°
2026-05-05 15:22 36.84252 -76.48088 38099 ft 434 kts 202°
2026-05-05 15:23 36.78552 -76.50409 38106 ft 434 kts 202°
2026-05-05 15:23 36.72795 -76.52755 38093 ft 436 kts 202°
2026-05-05 15:24 36.67023 -76.55102 38090 ft 437 kts 202°
2026-05-05 15:24 36.61229 -76.57450 38103 ft 438 kts 202°
2026-05-05 15:25 36.55432 -76.59798 38098 ft 438 kts 202°
2026-05-05 15:25 36.49628 -76.62147 38105 ft 438 kts 202°
2026-05-05 15:26 36.43825 -76.64485 38094 ft 438 kts 202°
2026-05-05 15:26 36.38058 -76.66807 38104 ft 438 kts 202°
2026-05-05 15:27 36.32264 -76.69136 38111 ft 438 kts 202°
2026-05-05 15:27 36.26469 -76.71468 38122 ft 438 kts 202°
2026-05-05 15:28 36.20671 -76.73796 38122 ft 438 kts 203°
2026-05-05 15:28 36.14868 -76.76126 38134 ft 438 kts 203°
2026-05-05 15:29 36.09072 -76.78453 38138 ft 438 kts 203°
2026-05-05 15:29 36.03250 -76.80769 38141 ft 438 kts 202°
2026-05-05 15:30 35.97447 -76.83079 38130 ft 438 kts 203°
2026-05-05 15:30 35.91648 -76.85421 38135 ft 436 kts 207°
2026-05-05 15:31 35.86218 -76.88635 38121 ft 432 kts 212°
2026-05-05 15:31 35.81742 -76.91396 38127 ft 434 kts 212°
2026-05-05 15:32 35.76331 -76.94716 38119 ft 435 kts 212°
2026-05-05 15:32 35.70040 -76.98576 38134 ft 435 kts 212°
2026-05-05 15:33 35.65531 -77.01346 38142 ft 435 kts 212°
2026-05-05 15:33 35.60109 -77.04672 38145 ft 435 kts 212°
2026-05-05 15:34 35.54682 -77.08001 38133 ft 436 kts 212°
2026-05-05 15:34 35.49246 -77.11322 38141 ft 436 kts 212°
2026-05-05 15:35 35.43813 -77.14631 38144 ft 436 kts 212°
2026-05-05 15:35 35.37497 -77.18482 38146 ft 436 kts 212°
2026-05-05 15:36 35.32940 -77.21245 38147 ft 436 kts 212°
2026-05-05 15:36 35.27536 -77.24520 38132 ft 437 kts 212°
2026-05-05 15:37 35.22082 -77.27827 38133 ft 438 kts 212°
2026-05-05 15:37 35.16611 -77.31136 38139 ft 439 kts 212°
2026-05-05 15:38 35.11128 -77.34457 38145 ft 440 kts 212°
2026-05-05 15:38 35.05642 -77.37771 38137 ft 440 kts 212°
2026-05-05 15:39 35.00148 -77.41084 38150 ft 440 kts 212°
2026-05-05 15:39 34.94651 -77.44399 38155 ft 441 kts 212°
2026-05-05 15:40 34.89152 -77.47703 38160 ft 441 kts 212°
2026-05-05 15:40 34.83644 -77.51003 38142 ft 441 kts 213°
2026-05-05 15:41 34.78139 -77.54308 38154 ft 441 kts 213°
2026-05-05 15:41 34.72629 -77.57608 38162 ft 442 kts 213°
2026-05-05 15:42 34.67108 -77.60902 38128 ft 442 kts 214°
2026-05-05 15:42 34.61570 -77.64214 38120 ft 445 kts 214°
2026-05-05 15:43 34.55907 -77.67340 38127 ft 455 kts 205°
2026-05-05 15:43 34.49703 -77.69083 38132 ft 463 kts 199°
2026-05-05 15:44 34.43388 -77.70682 38134 ft 464 kts 199°
2026-05-05 15:44 34.37069 -77.72291 38126 ft 464 kts 199°
2026-05-05 15:45 34.30743 -77.73910 38130 ft 465 kts 199°
2026-05-05 15:45 34.24400 -77.75521 38137 ft 466 kts 199°
2026-05-05 15:46 34.18040 -77.77130 38145 ft 467 kts 199°
2026-05-05 15:46 34.11720 -77.78729 38128 ft 467 kts 199°
2026-05-05 15:47 34.05351 -77.80344 38136 ft 468 kts 199°
2026-05-05 15:47 33.98959 -77.81955 38147 ft 469 kts 199°
2026-05-05 15:48 33.92565 -77.83563 38148 ft 469 kts 199°
2026-05-05 15:48 33.86170 -77.85164 38126 ft 470 kts 199°
2026-05-05 15:49 33.79761 -77.86774 38136 ft 471 kts 199°
2026-05-05 15:49 33.73430 -77.88673 38144 ft 468 kts 204°
2026-05-05 15:50 33.67202 -77.90899 38149 ft 467 kts 205°
2026-05-05 15:50 33.60967 -77.93132 38125 ft 468 kts 204°
2026-05-05 15:51 33.54694 -77.95269 38138 ft 469 kts 203°
2026-05-05 15:51 33.48385 -77.97372 38137 ft 473 kts 204°
2026-05-05 15:52 33.42032 -77.99508 38142 ft 475 kts 204°
2026-05-05 15:52 33.35703 -78.01646 38125 ft 476 kts 204°
2026-05-05 15:53 33.29304 -78.03796 38150 ft 478 kts 204°
2026-05-05 15:53 33.22886 -78.05948 38153 ft 478 kts 204°
2026-05-05 15:54 33.16481 -78.08100 38158 ft 478 kts 204°
2026-05-05 15:54 33.10067 -78.10246 38118 ft 478 kts 204°
2026-05-05 15:55 33.03662 -78.12389 38138 ft 478 kts 204°
2026-05-05 15:55 32.97256 -78.14532 38152 ft 478 kts 204°
2026-05-05 15:56 32.90900 -78.16657 38156 ft 478 kts 204°
2026-05-05 15:56 32.84497 -78.18792 38159 ft 478 kts 204°
2026-05-05 15:57 32.78087 -78.20921 38160 ft 478 kts 204°
2026-05-05 15:57 32.71684 -78.23046 38158 ft 478 kts 204°
2026-05-05 15:58 32.65279 -78.25166 38162 ft 478 kts 204°
2026-05-05 15:58 32.58866 -78.27289 38127 ft 478 kts 204°
2026-05-05 15:59 32.52465 -78.29407 38139 ft 478 kts 204°
2026-05-05 15:59 32.46059 -78.31524 38149 ft 478 kts 204°
2026-05-05 16:00 32.39656 -78.33638 38155 ft 478 kts 204°
2026-05-05 16:00 32.33250 -78.35742 38128 ft 478 kts 204°
2026-05-05 16:01 32.26846 -78.37840 38147 ft 477 kts 204°
2026-05-05 16:01 32.20448 -78.39951 38161 ft 477 kts 204°
2026-05-05 16:02 32.14089 -78.42032 38160 ft 477 kts 204°
2026-05-05 16:02 32.07688 -78.44113 38116 ft 476 kts 204°
2026-05-05 16:03 32.01293 -78.46209 38164 ft 476 kts 205°
2026-05-05 16:03 31.94915 -78.48300 38172 ft 476 kts 205°
2026-05-05 16:04 31.88537 -78.50387 38173 ft 475 kts 204°
2026-05-05 16:04 31.82193 -78.52440 38134 ft 475 kts 204°
2026-05-05 16:05 31.75824 -78.54505 38149 ft 475 kts 204°
2026-05-05 16:05 31.69452 -78.56567 38158 ft 474 kts 204°
2026-05-05 16:06 31.63088 -78.58631 38157 ft 474 kts 204°
2026-05-05 16:06 31.56727 -78.60690 38159 ft 474 kts 204°
2026-05-05 16:07 31.50403 -78.62763 38162 ft 470 kts 205°
2026-05-05 16:07 31.44137 -78.64928 38174 ft 468 kts 205°
2026-05-05 16:08 31.37896 -78.67104 38175 ft 468 kts 205°
2026-05-05 16:08 31.31691 -78.69237 38140 ft 468 kts 205°
2026-05-05 16:09 31.25450 -78.71359 38145 ft 467 kts 205°
2026-05-05 16:09 31.19204 -78.73479 38157 ft 466 kts 205°
2026-05-05 16:10 31.12969 -78.75600 38160 ft 466 kts 205°
2026-05-05 16:10 31.06733 -78.77716 38160 ft 466 kts 205°
2026-05-05 16:11 31.00551 -78.79816 38129 ft 466 kts 205°
2026-05-05 16:12 30.88109 -78.84039 38144 ft 466 kts 205°
2026-05-05 16:13 30.72546 -78.89304 38142 ft 468 kts 206°
2026-05-05 16:13 30.66282 -78.91412 38148 ft 469 kts 206°
2026-05-05 16:14 30.53745 -78.95619 38149 ft 469 kts 206°
2026-05-05 16:15 30.41253 -78.99842 38121 ft 468 kts 209°
2026-05-05 16:16 30.29181 -79.05111 38134 ft 462 kts 213°
2026-05-05 16:17 30.20157 -79.09168 38122 ft 466 kts 212°
2026-05-05 16:18 30.11003 -79.13107 38128 ft 468 kts 212°
2026-05-05 16:19 30.01854 -79.17078 38126 ft 468 kts 212°
2026-05-05 16:19 29.92693 -79.21057 38135 ft 470 kts 213°
2026-05-05 16:20 29.81446 -79.25892 38145 ft 471 kts 213°
2026-05-05 16:22 29.66119 -79.32515 38119 ft 470 kts 213°
2026-05-05 16:23 29.53897 -79.37776 38141 ft 470 kts 213°
2026-05-05 16:23 29.44707 -79.41727 38140 ft 470 kts 213°
2026-05-05 16:24 29.38578 -79.44349 38116 ft 470 kts 212°
2026-05-05 16:25 29.29339 -79.48284 38140 ft 472 kts 212°
2026-05-05 16:25 29.20106 -79.52227 38136 ft 471 kts 213°
2026-05-05 16:26 29.08030 -79.57730 38123 ft 455 kts 223°
2026-05-05 16:27 29.02649 -79.61456 38124 ft 451 kts 224°
2026-05-05 16:27 28.97287 -79.65180 38126 ft 451 kts 224°
2026-05-05 16:28 28.91905 -79.68892 38123 ft 451 kts 224°
2026-05-05 16:28 28.86530 -79.72602 38123 ft 451 kts 224°
2026-05-05 16:29 28.81166 -79.76311 38086 ft 451 kts 224°
2026-05-05 16:29 28.75822 -79.79995 38066 ft 452 kts 224°
2026-05-05 16:30 28.70421 -79.83715 38113 ft 455 kts 224°
2026-05-05 16:30 28.64998 -79.87436 38110 ft 455 kts 224°
2026-05-05 16:31 28.59567 -79.91143 38109 ft 455 kts 224°
2026-05-05 16:31 28.54140 -79.94860 38084 ft 455 kts 224°
2026-05-05 16:32 28.48716 -79.98579 38091 ft 455 kts 224°
2026-05-05 16:32 28.43287 -80.02305 38089 ft 456 kts 224°
2026-05-05 16:33 28.37890 -80.06003 38093 ft 456 kts 224°
2026-05-05 16:33 28.32449 -80.09714 38096 ft 456 kts 224°
2026-05-05 16:34 28.26999 -80.13424 38078 ft 458 kts 224°
2026-05-05 16:34 28.21533 -80.17144 38045 ft 458 kts 224°
2026-05-05 16:35 28.16053 -80.20854 38061 ft 459 kts 223°
2026-05-05 16:35 28.10564 -80.24571 38069 ft 460 kts 224°
2026-05-05 16:36 28.05065 -80.28303 38081 ft 460 kts 224°
2026-05-05 16:36 27.99598 -80.32013 38075 ft 462 kts 223°
2026-05-05 16:37 27.94072 -80.35748 38097 ft 463 kts 223°
2026-05-05 16:37 27.88542 -80.39482 38109 ft 463 kts 223°
2026-05-05 16:38 27.83016 -80.43207 38108 ft 462 kts 223°
2026-05-05 16:38 27.77487 -80.46930 38115 ft 462 kts 223°
2026-05-05 16:39 27.74596 -80.48620 38117 ft 475 kts 214°
2026-05-05 16:39 27.71417 -80.49836 38092 ft 488 kts 203°
2026-05-05 16:39 27.68033 -80.50490 38101 ft 500 kts 193°
2026-05-05 16:39 27.64547 -80.50762 38107 ft 502 kts 192°
2026-05-05 16:40 27.57578 -80.51299 38107 ft 502 kts 192°
2026-05-05 16:40 27.50666 -80.51853 38099 ft 501 kts 192°
2026-05-05 16:41 27.43704 -80.52412 38099 ft 501 kts 192°
2026-05-05 16:41 27.36739 -80.52956 38069 ft 502 kts 192°
2026-05-05 16:42 27.29761 -80.53493 38073 ft 501 kts 192°
2026-05-05 16:42 27.22802 -80.54040 38073 ft 501 kts 192°
2026-05-05 16:43 27.15862 -80.54593 38086 ft 499 kts 192°
2026-05-05 16:43 27.08973 -80.55140 38072 ft 499 kts 192°
2026-05-05 16:44 27.02056 -80.55678 38075 ft 498 kts 192°
2026-05-05 16:44 26.95145 -80.56219 38073 ft 498 kts 192°
2026-05-05 16:45 26.88232 -80.56758 38071 ft 497 kts 192°
2026-05-05 16:45 26.81336 -80.57302 38039 ft 497 kts 192°
2026-05-05 16:46 26.74441 -80.57848 38047 ft 496 kts 192°
2026-05-05 16:46 26.67554 -80.58387 38054 ft 496 kts 192°
2026-05-05 16:47 26.60662 -80.58920 38060 ft 496 kts 192°
2026-05-05 16:47 26.53774 -80.59449 38032 ft 496 kts 192°
2026-05-05 16:48 26.46935 -80.59982 37940 ft 496 kts 192°
2026-05-05 16:48 26.43451 -80.60252 37662 ft 495 kts 192°
2026-05-05 16:48 26.40012 -80.60517 37397 ft 495 kts 192°
2026-05-05 16:49 26.36576 -80.60784 36824 ft 496 kts 192°
2026-05-05 16:49 26.33160 -80.61052 36186 ft 499 kts 191°
2026-05-05 16:49 26.29705 -80.61318 35718 ft 497 kts 191°
2026-05-05 16:49 26.26261 -80.61580 35224 ft 495 kts 191°
2026-05-05 16:50 26.22830 -80.61844 34738 ft 494 kts 191°
2026-05-05 16:50 26.19408 -80.62107 34274 ft 492 kts 191°
2026-05-05 16:50 26.15996 -80.62366 33771 ft 490 kts 191°
2026-05-05 16:50 26.12598 -80.62616 33294 ft 487 kts 191°
2026-05-05 16:51 26.09231 -80.62859 32825 ft 484 kts 190°
2026-05-05 16:51 26.05877 -80.63104 32358 ft 481 kts 190°
2026-05-05 16:51 26.02547 -80.63355 31888 ft 478 kts 190°
2026-05-05 16:51 25.99237 -80.63605 31441 ft 474 kts 190°
2026-05-05 16:52 25.95960 -80.63850 30977 ft 470 kts 190°
2026-05-05 16:52 25.92753 -80.64089 30543 ft 466 kts 189°
2026-05-05 16:52 25.89536 -80.64330 30156 ft 460 kts 189°
2026-05-05 16:52 25.86374 -80.64564 29984 ft 449 kts 189°
2026-05-05 16:53 25.83298 -80.64788 30035 ft 438 kts 189°
2026-05-05 16:53 25.80262 -80.65012 30034 ft 435 kts 190°
2026-05-05 16:53 25.74237 -80.65462 30035 ft 434 kts 190°
2026-05-05 16:54 25.68206 -80.65920 29301 ft 440 kts 190°
2026-05-05 16:54 25.65132 -80.66156 28535 ft 445 kts 189°
2026-05-05 16:54 25.62042 -80.66390 27996 ft 443 kts 189°
2026-05-05 16:55 25.58980 -80.66615 27545 ft 439 kts 189°
2026-05-05 16:55 25.55946 -80.66835 27110 ft 435 kts 189°
2026-05-05 16:55 25.52938 -80.67052 26688 ft 431 kts 189°
2026-05-05 16:55 25.49959 -80.67265 26273 ft 427 kts 189°
2026-05-05 16:56 25.47010 -80.67480 25872 ft 423 kts 189°
2026-05-05 16:56 25.44084 -80.67697 25481 ft 419 kts 189°
2026-05-05 16:56 25.41185 -80.67912 25097 ft 416 kts 189°
2026-05-05 16:56 25.38329 -80.68228 24727 ft 407 kts 197°
2026-05-05 16:57 25.35593 -80.68960 24360 ft 401 kts 200°
2026-05-05 16:57 25.32902 -80.69721 23986 ft 397 kts 200°
2026-05-05 16:57 25.30270 -80.70463 23630 ft 394 kts 200°
2026-05-05 16:57 25.27627 -80.71207 23183 ft 390 kts 200°
2026-05-05 16:58 25.25005 -80.71942 22702 ft 388 kts 200°
2026-05-05 16:58 25.22394 -80.72672 22219 ft 386 kts 200°
2026-05-05 16:58 25.19796 -80.73397 21730 ft 384 kts 200°
2026-05-05 16:58 25.17214 -80.74122 21247 ft 382 kts 200°
2026-05-05 16:59 25.14643 -80.74843 20763 ft 380 kts 200°
2026-05-05 16:59 25.12088 -80.75558 20288 ft 378 kts 200°
2026-05-05 16:59 25.09544 -80.76270 19823 ft 376 kts 200°
2026-05-05 16:59 25.07010 -80.76978 19355 ft 375 kts 200°
2026-05-05 17:00 25.04487 -80.77682 18908 ft 373 kts 200°
2026-05-05 17:00 25.01984 -80.78422 18438 ft 369 kts 205°
2026-05-05 17:00 24.99715 -80.79640 17964 ft 358 kts 219°
2026-05-05 17:00 24.97666 -80.81116 17814 ft 344 kts 221°
2026-05-05 17:01 24.95861 -80.82750 17493 ft 334 kts 226°
2026-05-05 17:01 24.94139 -80.84470 16753 ft 341 kts 228°
2026-05-05 17:01 24.92415 -80.86267 16246 ft 340 kts 228°
2026-05-05 17:01 24.90706 -80.88061 15801 ft 338 kts 227°
2026-05-05 17:02 24.89002 -80.89833 15375 ft 335 kts 227°
2026-05-05 17:02 24.87300 -80.91582 14956 ft 333 kts 226°
2026-05-05 17:02 24.85605 -80.93306 14540 ft 330 kts 226°
2026-05-05 17:02 24.83917 -80.95010 14138 ft 328 kts 225°
2026-05-05 17:03 24.82243 -80.96697 13725 ft 325 kts 225°
2026-05-05 17:03 24.80582 -80.98369 13281 ft 322 kts 225°
2026-05-05 17:03 24.78935 -81.00028 12842 ft 320 kts 225°
2026-05-05 17:03 24.77321 -81.01696 12405 ft 316 kts 230°
2026-05-05 17:04 24.76049 -81.03634 11988 ft 310 kts 241°
2026-05-05 17:04 24.74931 -81.05655 11563 ft 308 kts 240°
2026-05-05 17:04 24.73816 -81.07656 11188 ft 304 kts 240°
2026-05-05 17:04 24.72711 -81.09630 10802 ft 302 kts 240°
2026-05-05 17:05 24.71629 -81.11562 10324 ft 299 kts 240°
2026-05-05 17:05 24.70548 -81.13492 9944 ft 293 kts 240°
2026-05-05 17:05 24.69503 -81.15358 9772 ft 280 kts 240°
2026-05-05 17:05 24.68491 -81.17162 9360 ft 276 kts 240°
2026-05-05 17:06 24.67484 -81.18953 8909 ft 274 kts 240°
2026-05-05 17:06 24.66491 -81.20720 8555 ft 269 kts 240°
2026-05-05 17:06 24.65519 -81.22452 8236 ft 264 kts 240°
2026-05-05 17:06 24.64512 -81.24112 7928 ft 260 kts 232°
2026-05-05 17:07 24.63314 -81.25633 7831 ft 267 kts 231°
2026-05-05 17:07 24.62096 -81.27184 7704 ft 268 kts 231°
2026-05-05 17:07 24.60878 -81.28735 7572 ft 268 kts 231°
2026-05-05 17:07 24.59656 -81.30293 7436 ft 269 kts 231°
2026-05-05 17:08 24.58438 -81.31847 7291 ft 269 kts 231°
2026-05-05 17:08 24.57216 -81.33405 7169 ft 268 kts 231°
2026-05-05 17:08 24.56040 -81.34962 7036 ft 267 kts 237°
2026-05-05 17:08 24.55132 -81.36734 6911 ft 266 kts 244°
2026-05-05 17:09 24.54286 -81.38538 6779 ft 265 kts 244°
2026-05-05 17:09 24.53436 -81.40336 6649 ft 265 kts 244°
2026-05-05 17:09 24.52585 -81.42133 6520 ft 265 kts 244°
2026-05-05 17:09 24.51734 -81.43926 6387 ft 264 kts 244°
2026-05-05 17:10 24.50884 -81.45717 6251 ft 264 kts 244°
2026-05-05 17:10 24.50036 -81.47505 6123 ft 264 kts 244°
2026-05-05 17:10 24.49189 -81.49291 5996 ft 263 kts 244°
2026-05-05 17:10 24.48343 -81.51076 5867 ft 263 kts 244°
2026-05-05 17:11 24.47509 -81.52831 5740 ft 263 kts 244°
2026-05-05 17:11 24.46764 -81.54657 5608 ft 262 kts 254°
2026-05-05 17:11 24.46454 -81.56618 5492 ft 261 kts 268°
2026-05-05 17:11 24.46441 -81.58609 5365 ft 261 kts 270°
2026-05-05 17:12 24.46427 -81.60600 5237 ft 261 kts 269°
2026-05-05 17:12 24.46407 -81.62591 5110 ft 260 kts 269°
2026-05-05 17:12 24.46387 -81.64566 4984 ft 255 kts 269°
2026-05-05 17:12 24.46368 -81.66470 4875 ft 244 kts 269°
2026-05-05 17:13 24.46356 -81.67689 4807 ft 238 kts 269°
2026-05-05 17:13 24.46340 -81.69495 4706 ft 235 kts 269°
2026-05-05 17:13 24.46325 -81.71247 4599 ft 224 kts 269°
2026-05-05 17:13 24.46308 -81.72935 4499 ft 219 kts 269°
2026-05-05 17:14 24.46293 -81.74602 4391 ft 218 kts 270°
2026-05-05 17:14 24.46278 -81.76261 4284 ft 217 kts 270°
2026-05-05 17:14 24.46263 -81.77919 4178 ft 217 kts 270°
2026-05-05 17:14 24.46248 -81.79575 4070 ft 217 kts 270°
2026-05-05 17:15 24.46232 -81.81232 3965 ft 217 kts 270°
2026-05-05 17:15 24.46216 -81.82886 3857 ft 216 kts 270°
2026-05-05 17:15 24.46199 -81.84542 3749 ft 217 kts 270°
2026-05-05 17:15 24.46181 -81.86194 3643 ft 216 kts 270°
2026-05-05 17:16 24.46162 -81.87844 3536 ft 216 kts 270°
2026-05-05 17:16 24.46144 -81.89495 3434 ft 216 kts 270°
2026-05-05 17:16 24.46126 -81.91143 3323 ft 216 kts 270°
2026-05-05 17:16 24.46108 -81.92797 3215 ft 216 kts 270°
2026-05-05 17:17 24.46132 -81.94446 3103 ft 216 kts 279°
2026-05-05 17:17 24.46781 -81.95884 3007 ft 216 kts 315°
2026-05-05 17:17 24.48092 -81.96657 2867 ft 218 kts 350°
2026-05-05 17:17 24.49573 -81.96673 2752 ft 208 kts
2026-05-05 17:18 24.50998 -81.96671 2628 ft 202 kts 358°
2026-05-05 17:18 24.52396 -81.96694 2509 ft 201 kts 358°
2026-05-05 17:18 24.53778 -81.96601 2387 ft 200 kts 17°
2026-05-05 17:18 24.54918 -81.95761 2275 ft 201 kts 52°
2026-05-05 17:19 24.55414 -81.94337 2166 ft 203 kts 86°
2026-05-05 17:19 24.55410 -81.92790 2086 ft 198 kts 90°
2026-05-05 17:19 24.55421 -81.91288 2017 ft 195 kts 89°
2026-05-05 17:19 24.55439 -81.89806 1897 ft 193 kts 89°
2026-05-05 17:20 24.55457 -81.88336 1737 ft 191 kts 88°
2026-05-05 17:20 24.55513 -81.86883 1630 ft 190 kts 85°
2026-05-05 17:20 24.55589 -81.85444 1559 ft 184 kts 85°
2026-05-05 17:20 24.55646 -81.84095 1384 ft 169 kts 88°
2026-05-05 17:21 24.55641 -81.82863 1226 ft 153 kts 90°
2026-05-05 17:21 24.55602 -81.81729 946 ft 146 kts 91°
2026-05-05 17:21 24.55575 -81.80634 775 ft 143 kts 89°
2026-05-05 17:22 24.55591 -81.78487 375 ft 138 kts 89°
2026-05-05 17:22 24.55604 -81.77433 173 ft 138 kts 90°
2026-05-05 17:22 24.55609 -81.76393 12 ft 129 kts 90°
2026-05-05 17:22 24.55615 -81.75661 14 ft 54 kts 90°
2026-05-05 17:23 24.55615 -81.75480 15 ft 16 kts 89°
2026-05-05 17:23 24.55616 -81.75367 14 ft 11 kts 90°
2026-05-05 17:23 24.55617 -81.75282 13 ft 13 kts 90°
2026-05-05 17:23 24.55610 -81.75247 14 ft 3 kts 133°
2026-05-05 17:24 24.55586 -81.75241 13 ft 5 kts 175°
2026-05-05 17:24 24.55546 -81.75242 13 ft 7 kts 195°
2026-05-05 17:24 24.55530 -81.75294 12 ft 8 kts 270°
2026-05-05 17:24 24.55530 -81.75365 12 ft 10 kts 269°
2026-05-05 17:25 24.55529 -81.75437 12 ft 4 kts 265°
2026-05-05 17:25 24.55518 -81.75450 13 ft 4 kts 208°
2026-05-05 17:25 24.55475 -81.75459 12 ft 2 kts 200°
2026-05-05 17:25 24.55454 -81.75461 12 ft 2 kts 179°
2026-05-05 17:26 24.55439 -81.75460 12 ft 2 kts 180°